When you browse on this site, cookies collect data to enhance your experience and personalize the content and advertising you see.
Visit our Privacy Policy to learn more. By continuing to use the site, you agree to this use of cookies and data.
  • In Germany
  • List of Countries
  • For 7 days
  • Water Temperature
  • Satellite Maps
  • Weather Map
  • Weather Widgets
  • user-avatar
    Login

    Hourly Weather Zhlobin

    Today, 22 January, Tuesday

    Time Temperature Precipitation Wind Pressure Humidity
    00:00 -12°C° 0 mm 2 mps 752 mmHg 95%
    01:00 -12°C° 0 mm 2 mps 752 mmHg 96%
    02:00 -9°C° 0 mm 3 mps 752 mmHg 96%
    03:00 -8°C° 0 mm 2 mps 752 mmHg 96%
    04:00 -8°C° 0 mm 2 mps 752 mmHg 97%
    05:00 -8°C° 0 mm 2 mps 752 mmHg 97%
    06:00 -8°C° 0.1 mm 2 mps 752 mmHg 97%
    07:00 -8°C° 0.1 mm 2 mps 752 mmHg 97%
    08:00 -8°C° 0.1 mm 2 mps 752 mmHg 97%
    09:00 -8°C° 0 mm 2 mps 752 mmHg 95%
    10:00 -8°C° 0 mm 3 mps 752 mmHg 94%
    11:00 -7°C° 0 mm 3 mps 752 mmHg 93%
    12:00 -7°C° 0 mm 3 mps 752 mmHg 92%
    13:00 -7°C° 0 mm 3 mps 752 mmHg 92%
    14:00 -7°C° 0 mm 3 mps 752 mmHg 91%
    15:00 -7°C° 0 mm 3 mps 752 mmHg 92%
    16:00 -7°C° 0 mm 2 mps 752 mmHg 92%
    17:00 -7°C° 0 mm 2 mps 752 mmHg 93%
    18:00 -8°C° 0 mm 2 mps 752 mmHg 93%
    19:00 -10°C° 0 mm 2 mps 751 mmHg 94%
    20:00 -12°C° 0 mm 2 mps 751 mmHg 95%
    21:00 -13°C° 0 mm 2 mps 751 mmHg 95%
    22:00 -13°C° 0 mm 2 mps 751 mmHg 96%
    23:00 -14°C° 0 mm 2 mps 751 mmHg 96%

    Tomorrow, 23 January, Wednesday

    Time Temperature Precipitation Wind Pressure Humidity
    00:00 -15°C° 0 mm 2 mps 751 mmHg 96%
    01:00 -15°C° 0 mm 2 mps 751 mmHg 96%
    02:00 -15°C° 0 mm 2 mps 751 mmHg 97%
    03:00 -16°C° 0 mm 2 mps 751 mmHg 96%
    04:00 -17°C° 0 mm 3 mps 750 mmHg 95%
    05:00 -17°C° 0 mm 3 mps 750 mmHg 95%
    06:00 -17°C° 0 mm 3 mps 750 mmHg 95%
    07:00 -17°C° 0 mm 3 mps 750 mmHg 95%
    08:00 -17°C° 0 mm 3 mps 750 mmHg 95%
    09:00 -17°C° 0 mm 4 mps 749 mmHg 94%
    10:00 -16°C° 0 mm 4 mps 749 mmHg 93%
    11:00 -14°C° 0 mm 4 mps 749 mmHg 92%
    12:00 -14°C° 0.1 mm 5 mps 749 mmHg 92%
    13:00 -13°C° 0.1 mm 5 mps 748 mmHg 92%
    14:00 -12°C° 0.1 mm 5 mps 748 mmHg 92%
    15:00 -12°C° 0.3 mm 5 mps 747 mmHg 92%
    16:00 -11°C° 0.3 mm 5 mps 747 mmHg 92%
    17:00 -11°C° 0.3 mm 5 mps 747 mmHg 92%
    18:00 -11°C° 0.2 mm 5 mps 746 mmHg 92%
    19:00 -11°C° 0.2 mm 5 mps 746 mmHg 92%
    20:00 -12°C° 0.2 mm 5 mps 746 mmHg 92%
    21:00 -12°C° 0.2 mm 5 mps 746 mmHg 92%
    22:00 -12°C° 0.2 mm 5 mps 745 mmHg 92%
    23:00 -12°C° 0.2 mm 5 mps 745 mmHg 92%

    Day after tomorrow, 24 January, Thursday

    Time Temperature Precipitation Wind Pressure Humidity
    00:00 -11°C° 0.1 mm 4 mps 745 mmHg 92%
    01:00 -11°C° 0.1 mm 4 mps 745 mmHg 92%
    02:00 -11°C° 0.1 mm 4 mps 745 mmHg 93%
    03:00 -12°C° 0 mm 4 mps 745 mmHg 93%
    04:00 -12°C° 0 mm 3 mps 745 mmHg 93%
    05:00 -12°C° 0 mm 3 mps 745 mmHg 94%
    06:00 -12°C° 0 mm 3 mps 745 mmHg 94%
    07:00 -12°C° 0 mm 3 mps 746 mmHg 94%
    08:00 -13°C° 0 mm 3 mps 746 mmHg 94%
    09:00 -12°C° 0 mm 3 mps 746 mmHg 94%
    10:00 -12°C° 0 mm 3 mps 747 mmHg 93%
    11:00 -12°C° 0 mm 3 mps 747 mmHg 93%
    12:00 -10°C° 0 mm 3 mps 747 mmHg 92%
    13:00 -10°C° 0 mm 3 mps 747 mmHg 92%
    14:00 -10°C° 0 mm 3 mps 747 mmHg 91%
    15:00 -10°C° 0 mm 3 mps 748 mmHg 92%
    16:00 -10°C° 0 mm 3 mps 748 mmHg 92%
    17:00 -12°C° 0 mm 3 mps 748 mmHg 93%
    18:00 -12°C° 0 mm 3 mps 748 mmHg 93%
    19:00 -12°C° 0 mm 3 mps 749 mmHg 94%
    20:00 -12°C° 0 mm 3 mps 749 mmHg 94%
    21:00 -13°C° 0 mm 3 mps 749 mmHg 94%
    22:00 -13°C° 0 mm 3 mps 749 mmHg 94%
    23:00 -13°C° 0 mm 3 mps 749 mmHg 94%

    25 January, Friday

    Time Temperature Precipitation Wind Pressure Humidity
    00:00 -13°C° 0.2 mm 3 mps 749 mmHg 94%
    01:00 -13°C° 0.2 mm 3 mps 749 mmHg 95%
    02:00 -13°C° 0.2 mm 3 mps 749 mmHg 95%
    03:00 -13°C° 0.8 mm 3 mps 749 mmHg 95%
    04:00 -13°C° 0.8 mm 3 mps 749 mmHg 96%
    05:00 -13°C° 0.8 mm 3 mps 749 mmHg 96%
    06:00 -13°C° 0.8 mm 3 mps 749 mmHg 96%
    07:00 -15°C° 0.8 mm 4 mps 749 mmHg 96%
    08:00 -15°C° 0.8 mm 4 mps 749 mmHg 95%
    09:00 -14°C° 0.5 mm 4 mps 749 mmHg 95%
    10:00 -14°C° 0.5 mm 4 mps 749 mmHg 94%
    11:00 -12°C° 0.5 mm 4 mps 749 mmHg 94%
    12:00 -12°C° 0.1 mm 4 mps 749 mmHg 93%
    13:00 -11°C° 0.1 mm 4 mps 749 mmHg 93%
    14:00 -11°C° 0.1 mm 4 mps 749 mmHg 92%
    15:00 -11°C° 0 mm 4 mps 749 mmHg 93%
    16:00 -10°C° 0 mm 3 mps 749 mmHg 93%
    17:00 -10°C° 0 mm 3 mps 749 mmHg 93%
    18:00 -10°C° 0 mm 3 mps 749 mmHg 93%
    19:00 -12°C° 0 mm 3 mps 749 mmHg 93%
    20:00 -12°C° 0 mm 3 mps 749 mmHg 93%
    21:00 -12°C° 0 mm 3 mps 749 mmHg 93%
    22:00 -12°C° 0 mm 3 mps 749 mmHg 93%
    23:00 -12°C° 0 mm 3 mps 749 mmHg 94%

    26 January, Saturday

    Time Temperature Precipitation Wind Pressure Humidity
    00:00 -12°C° 0 mm 3 mps 749 mmHg 94%
    01:00 -12°C° 0 mm 3 mps 749 mmHg 94%
    02:00 -12°C° 0 mm 3 mps 749 mmHg 94%
    03:00 -12°C° 0 mm 3 mps 749 mmHg 94%
    04:00 -13°C° 0 mm 3 mps 748 mmHg 94%
    05:00 -13°C° 0 mm 3 mps 748 mmHg 94%
    06:00 -13°C° 0 mm 3 mps 748 mmHg 94%
    07:00 -13°C° 0 mm 3 mps 748 mmHg 94%
    08:00 -13°C° 0 mm 3 mps 748 mmHg 94%
    09:00 -12°C° 0 mm 4 mps 748 mmHg 93%
    10:00 -12°C° 0 mm 4 mps 748 mmHg 93%
    11:00 -11°C° 0 mm 4 mps 748 mmHg 93%
    12:00 -11°C° 0 mm 4 mps 748 mmHg 93%
    13:00 -11°C° 0 mm 4 mps 748 mmHg 93%
    14:00 -10°C° 0 mm 3 mps 747 mmHg 93%
    15:00 -10°C° 0 mm 3 mps 747 mmHg 93%
    16:00 -12°C° 0 mm 3 mps 748 mmHg 93%
    17:00 -12°C° 0 mm 3 mps 748 mmHg 94%
    18:00 -12°C° 0 mm 3 mps 748 mmHg 94%
    19:00 -13°C° 0 mm 3 mps 748 mmHg 94%
    20:00 -14°C° 0 mm 4 mps 748 mmHg 94%
    21:00 -14°C° 0 mm 3 mps 748 mmHg 94%
    22:00 -14°C° 0 mm 3 mps 748 mmHg 94%
    23:00 -14°C° 0 mm 3 mps 748 mmHg 95%

    27 January, Sunday

    Time Temperature Precipitation Wind Pressure Humidity
    00:00 -14°C° 0 mm 3 mps 748 mmHg 94%
    01:00 -14°C° 0 mm 3 mps 748 mmHg 94%
    02:00 -14°C° 0 mm 3 mps 748 mmHg 94%
    03:00 -15°C° 0 mm 3 mps 748 mmHg 94%
    04:00 -16°C° 0 mm 4 mps 748 mmHg 94%
    05:00 -17°C° 0 mm 4 mps 748 mmHg 94%
    06:00 -17°C° 0 mm 4 mps 748 mmHg 94%
    07:00 -17°C° 0 mm 4 mps 748 mmHg 94%
    08:00 -18°C° 0 mm 4 mps 748 mmHg 94%
    09:00 -18°C° 0 mm 4 mps 748 mmHg 94%
    10:00 -18°C° 0 mm 4 mps 748 mmHg 93%
    11:00 -18°C° 0 mm 4 mps 749 mmHg 93%
    12:00 -18°C° 0 mm 4 mps 748 mmHg 93%
    13:00 -17°C° 0 mm 4 mps 748 mmHg 92%
    14:00 -17°C° 0 mm 4 mps 748 mmHg 92%
    15:00 -17°C° 0 mm 4 mps 748 mmHg 92%
    16:00 -18°C° 0 mm 4 mps 749 mmHg 93%
    17:00 -18°C° 0 mm 4 mps 749 mmHg 93%
    18:00 -19°C° 0 mm 4 mps 749 mmHg 93%
    19:00 -19°C° 0 mm 4 mps 750 mmHg 93%
    20:00 -20°C° 0 mm 4 mps 750 mmHg 93%
    21:00 -22°C° 0 mm 4 mps 750 mmHg 94%
    22:00 -22°C° 0 mm 4 mps 750 mmHg 94%
    23:00 -22°C° 0 mm 3 mps 751 mmHg 95%
    Show more